Hlavní strana
METAR-TAF:

METAR-TAF

Letiště :

Athens, Tennessee, Spojené státy americké

zeměpisná šířka: 35-23-50N, zeměpisná délka: 084-33-45W, výška: 262 m

Aktuální stav počasí

Zpráva byla vytvořena před 25 minutami, v 18:15 UTC
Bezvětří
Teplota 15°C
Vlhkost vzduchu 100%
Tlak 1018 hPa
Viditelnost: 4.8 km
Zataženo ve výšce 900 ft
kouřmo

METAR: KMMI 181815Z AUTO 00000KT 3SM BR OVC009 15/15 A3007 RMK A01

Čas: 12:40 (18:40 UTC)


TAF: chybějící

Stav a předpovědi počasí z více než 4 000 letišť (zprávy METAR a TAF).

Červené a žluté tečky na mapě představují dostupné meteorologické stanice.

Když kurzor umístíte na tečku, zobrazí se název stanice.

Pak kliknutím zobrazíte stav a předpověď počasí.

Chcete-li změnit mapu, kliknutím na zelené tlačítko se znaménkem +mapu přiblížíte, kliknutím na zelené tlačítko se znaménkem – mapu oddálíte a kliknutím na zelené šipky přejdete na sousední mapy.


METAR-TAF: